GSAT-8

Last updated on Sat Dec 13 2025 00:02:47 GMT+0000 (Coordinated Universal Time)

1 37605U 11022A 25346.14461310 .00000094 00000+0 00000+0 0 9998 2 37605 1.6487 84.1935 0008775 183.6973 280.3453 1.00271077 51346
UTC large
Height (km)
Speed (km/s)
/
Latitude / Longitude
Inclination (degrees)
Orbital Period (minutes)
Azimuth
Elevation
Range (km)
Doppler Factor

Next 0 passes for location: London (51.5072 / 0.1276)

Sorry there are no passes over London.